Voltar ao catálogo

ONEWEB-0538

AtivoComunicaçõesPO
NORAD 56047·PAYLOAD·🇬🇧 United Kingdom

Lançado Mar 26, 2023 de Satish Dhawan Space Centre

Loading…

Próximas Passagens (próximas 24 horas)

TLE

AtualizadoSource: CelesTrak SupGP

Época: Sep 14, 2026, 20:56 UTC

1 56047C 23043B   26257.87272409  .00000713  00000+0  18686-2 0  2573
2 56047  87.9151 210.9665 0001875  75.3575 322.8840 13.16594862    10

Acompanhe ONEWEB-0538 em tempo real com AllMySat

Download on the App Store